Printer-friendly version

IAU Minor Planet Center

Minor Planet Center

MPEC 2007-D47 : 2007 DY40

The following Minor Planet Electronic Circular may be linked-to from your own Web pages, but must not otherwise be redistributed electronically.


Read MPEC 2007-D46 Read MPEC 2007-D48


M.P.E.C. 2007-D47                                Issued 2007 Feb. 23, 12:51 UT

     The Minor Planet Electronic Circulars contain information on unusual
         minor planets and routine data on comets.  They are published
   on behalf of Commission 20 of the International Astronomical Union by the
          Minor Planet Center, Smithsonian Astrophysical Observatory,
                          Cambridge, MA 02138, U.S.A.

             Prepared using the Tamkin Foundation Computer Network

                              MPC@CFA.HARVARD.EDU
          URL http://cfa-www.harvard.edu/iau/mpc.html  ISSN 1523-6714

                                   2007 DY40

Observations:
     K07D40Y* C2007 02 21.39017 11 17 10.03 +03 52 40.0          21.6 V ED047G96
     K07D40Y  C2007 02 21.39674 11 17 09.56 +03 52 46.0          21.7 V ED047G96
     K07D40Y  C2007 02 21.40324 11 17 09.06 +03 52 52.0          21.2 V ED047G96
     K07D40Y  C2007 02 21.40974 11 17 08.59 +03 52 57.8          21.7 V ED047G96
     K07D40Y  C2007 02 21.45963 11 17 04.92 +03 53 42.0          21.8 V ED047G96
     K07D40Y  C2007 02 21.46443 11 17 04.56 +03 53 46.7          22.0 V ED047G96
     K07D40Y  C2007 02 21.47887 11 17 03.61 +03 53 57.4                 ED047G96
     K07D40Y  C2007 02 21.48067 11 17 03.44 +03 54 00.3          21.6 V ED047G96
     K07D40Y  C2007 02 21.48249 11 17 03.30 +03 54 02.0                 ED047G96
     K07D40Y  C2007 02 21.48438 11 17 03.16 +03 54 03.6          21.6 V ED047G96
     K07D40Y  C2007 02 23.30391 11 14 52.98 +04 22 20.7          20.3 V ED047G96
     K07D40Y  C2007 02 23.30583 11 14 52.80 +04 22 23.4          20.5 V ED047G96
     K07D40Y  C2007 02 23.30775 11 14 52.62 +04 22 25.3          20.8 V ED047G96
     K07D40Y  C2007 02 23.30970 11 14 52.54 +04 22 27.1          20.8 V ED047G96
     K07D40Y  C2007 02 23.44322 11 14 41.56 +04 24 37.6          20.8 V ED047G96
     K07D40Y  C2007 02 23.44517 11 14 41.53 +04 24 38.9                 ED047G96
     K07D40Y  C2007 02 23.44711 11 14 41.24 +04 24 40.5          21.4 V ED047G96
     K07D40Y  C2007 02 23.44905 11 14 41.12 +04 24 43.0          20.8 V ED047G96

Observer details:
G96 Mt. Lemmon Survey.  Observer R. E. Hill.  Measurers E. C. Beshore,
    E. J. Christensen, G. J. Garradd, A. R. Gibbs, A. D. Grauer, R. E. Hill,
    R. A. Kowalski, S. M. Larson, R. H. McNaught.  1.5-m reflector + CCD.

Orbital elements:
2007 DY40                                           PHA, Earth MOID = 0.0237 AU
Epoch 2007 Apr. 10.0 TT = JDT 2454200.5                 MPC
M 333.74360              (2000.0)            P               Q
n   0.43863848     Peri.  115.12397     +0.10057451     +0.99430041
a   1.7155296      Node   160.55003     -0.94681543     +0.10657362
e   0.5853581      Incl.    6.09857     -0.30565554     -0.00295845
P   2.25           H   20.9           G   0.15           U   9
Residuals in seconds of arc
070221 G96  0.1+  0.1-    070221 G96  0.8+  1.4-    070223 G96  0.6-  0.4+
070221 G96  0.2+  0.1+    070221 G96  0.2+  0.1-    070223 G96  0.6+  0.3+
070221 G96  0.1-  0.3+    070221 G96  0.0   0.0     070223 G96  0.6-  0.4+
070221 G96  0.0   0.3+    070221 G96  0.0   0.1-    070223 G96  1.3+  0.3-
070221 G96  0.5-  0.3+    070223 G96  0.2+  0.5-    070223 G96  0.6-  0.5-
070221 G96  0.7-  0.7+    070223 G96  0.2-  0.3+    070223 G96  0.1-  0.1+

Ephemeris:
2007 DY40                a,e,i = 1.72, 0.59, 6                   q = 0.7113
Date    TT    R. A. (2000) Decl.     Delta      r     Elong.  Phase     V
2007 02 19    11 19.68   +03 19.5    0.598    1.564   160.4    12.2    21.5
2007 03 01    11 06.50   +06 07.9    0.490    1.479   174.6     3.6    20.5
2007 03 11    10 45.59   +10 20.4    0.404    1.391   168.8     8.0    20.2
2007 03 21    10 16.31   +15 57.4    0.339    1.300   150.0    22.6    20.2
2007 03 31    09 39.43   +22 31.6    0.294    1.207   129.4    39.7    20.2
2007 04 10    08 55.85   +29 20.6    0.263    1.112   108.1    58.9    20.4
2007 04 20    08 03.70   +35 49.2    0.243    1.018    86.3    80.0    20.7
2007 04 30    06 55.14   +41 12.4    0.229    0.927    63.2   104.0    21.4

Timothy B. Spahr             (C) Copyright 2007 MPC           M.P.E.C. 2007-D47

Read MPEC 2007-D46 Read MPEC 2007-D48


Our Web policy. Index to the CBAT/MPC/ICQ pages.


Valid HTML 4.01!